Marshfield, WI

11:46 PM CDT on April 23, 2017 (GMT -0500)
Marshfield Municipal

Weather History for KMFI - May, 2014

Change the Weather History Date:

Wednesday, May 28, 2014

  Actual Average Record
Temperature  
Mean Temperature 65 °F -  
Max Temperature 73 °F 72 °F 89 °F (2006)
Min Temperature 57 °F 48 °F 31 °F (1965)
Growing Degree Days 15 (Base 50)    
Moisture  
Dew Point 46 °F    
Average Humidity 53    
Maximum Humidity 75    
Minimum Humidity 31    
Precipitation  
Precipitation 0.00 in - - ()
Sea Level Pressure  
Sea Level Pressure 30.06 in    
Wind  
Wind Speed 7 mph (East)    
Max Wind Speed 12 mph    
Max Gust Speed -    
Visibility 10 miles    
Events      
Averages and records for this station are not official NWS values.
T = Trace of Precipitation, MM = Missing Value Source: NWS Daily Summary

Daily Weather History Graph

Daily Weather History Graph

Search for Another Location

Airport or City:

Trip Planner

Search our weather history database for the weather conditions in past years. The results will help you decide how hot, cold, wet, or windy it might be!

Date:

Astronomy

May. 28, 2014 Rise Set
Actual Time 5:21 AM CDT 8:35 PM CDT
Civil Twilight 4:45 AM CDT 9:11 PM CDT
Nautical Twilight 3:59 AM CDT 9:57 PM CDT
Astronomical Twilight 3:03 AM CDT 10:54 PM CDT
Moon 5:30 AM CDT (5/28) 8:31 PM CDT (5/28)
Length of Visible Light 16h 25m
Length of Day
15h 14m
Waning Crescent, 0% of the Moon is Illuminated
May 28
Waning Crescent
May 28
New
Jun 5
First Quarter
Jun 12
Full
Jun 19
Last Quarter

Hourly Weather History & Observations

Time (CDT) Temp. Dew Point Humidity Pressure Visibility Wind Dir Wind Speed Gust Speed Precip Events Conditions
12:54 AM 64.9 °F 55.9 °F 73% 29.99 in 10.0 mi East 5.8 mph - N/A   Overcast
1:54 AM 64.0 °F 54.0 °F 70% 29.99 in 10.0 mi East 9.2 mph - N/A   Overcast
2:54 AM 62.1 °F 51.1 °F 67% 29.99 in 10.0 mi East 8.1 mph - N/A   Overcast
3:54 AM 61.0 °F 46.0 °F 58% 30.00 in 10.0 mi East 11.5 mph - N/A   Overcast
4:54 AM 60.1 °F 39.9 °F 47% 30.01 in 10.0 mi East 8.1 mph - N/A   Mostly Cloudy
5:54 AM 59.0 °F 39.0 °F 48% 30.03 in 10.0 mi East 6.9 mph - N/A   Mostly Cloudy
6:54 AM 57.9 °F 41.0 °F 53% 30.06 in 10.0 mi NE 4.6 mph - N/A   Mostly Cloudy
8:54 AM 61.0 °F 43.0 °F 52% 30.07 in 10.0 mi East 6.9 mph - N/A   Clear
9:54 AM 62.1 °F 45.0 °F 53% 30.08 in 10.0 mi ENE 5.8 mph - N/A   Overcast
10:54 AM 66.9 °F 48.0 °F 51% 30.09 in 10.0 mi NE 6.9 mph - N/A   Scattered Clouds
11:54 AM 66.9 °F 48.9 °F 52% 30.09 in 10.0 mi ENE 9.2 mph - N/A   Mostly Cloudy
1:54 PM 70.0 °F 46.0 °F 42% 30.09 in 10.0 mi ENE 6.9 mph - N/A   Partly Cloudy
2:54 PM 72.0 °F 45.0 °F 38% 30.09 in 10.0 mi ENE 5.8 mph - N/A   Overcast
3:54 PM 73.0 °F 41.0 °F 31% 30.08 in 10.0 mi East 9.2 mph - N/A   Overcast
6:54 PM 73.0 °F 42.1 °F 33% 30.06 in 10.0 mi SE 6.9 mph - N/A   Clear
7:54 PM 70.0 °F 46.9 °F 44% 30.07 in 10.0 mi South 3.5 mph - N/A   Clear
8:54 PM 66.0 °F 45.0 °F 47% 30.09 in 10.0 mi SE 3.5 mph - N/A   Clear
9:54 PM 63.0 °F 46.9 °F 56% 30.12 in 10.0 mi SE 5.8 mph - N/A   Clear
10:54 PM 62.1 °F 50.0 °F 65% 30.12 in 10.0 mi ESE 3.5 mph - N/A   Clear
11:54 PM 57.9 °F 50.0 °F 75% 30.12 in 10.0 mi ESE 5.8 mph - N/A   Clear